TimeMST,TemperatureF,Dew PointF,Humidity,Sea Level PressureIn,VisibilityMPH,Wind Direction,Wind SpeedMPH,Gust SpeedMPH,PrecipitationIn,Events,Conditions,WindDirDegrees,DateUTC
5:00 AM,6,3,81,29.55,0,Calm,Calm,,,Fog,Heavy Fog,,2012-12-02 12:00:00
5:00 AM,6.8,3.2,85,29.55,0.1,ESE,4.6,-,N/A,Fog,Light Freezing Fog,120,2012-12-02 12:00:00
6:00 AM,6.8,3.2,85,29.54,0.1,SW,3.5,-,N/A,Fog,Light Freezing Fog,230,2012-12-02 13:00:00
6:41 AM,6.8,5.0,92,29.54,1.0,SW,3.5,-,N/A,,Overcast,220,2012-12-02 13:41:00
7:00 AM,8.6,5.0,85,29.52,3.0,Calm,Calm,-,N/A,,Overcast,0,2012-12-02 14:00:00
8:00 AM,8.6,5.0,85,29.49,4.0,Calm,Calm,-,N/A,,Overcast,0,2012-12-02 15:00:00
9:00 AM,10.4,6.8,85,29.49,2.0,SE,4.6,-,N/A,,Overcast,140,2012-12-02 16:00:00
9:14 AM,10.4,6.8,85,29.48,3.0,South,5.8,-,N/A,,Light Freezing Drizzle,170,2012-12-02 16:14:00
9:48 AM,10.4,8.6,92,29.48,3.0,South,5.8,-,N/A,,Overcast,170,2012-12-02 16:48:00
10:00 AM,10.4,8.6,92,29.47,3.0,South,5.8,-,N/A,,Overcast,180,2012-12-02 17:00:00
10:43 AM,10.4,8.6,92,29.46,3.0,Calm,Calm,-,N/A,,Overcast,0,2012-12-02 17:43:00
11:00 AM,11,8,83,29.46,3,Calm,Calm,,,,Mist,,2012-12-02 18:00:00
11:00 AM,10.4,8.6,92,29.46,3.0,Calm,Calm,-,N/A,,Overcast,0,2012-12-02 18:00:00
11:06 AM,12.2,8.6,85,29.45,3.0,Variable,2.3,-,N/A,Snow,Light Snow,0,2012-12-02 18:06:00
11:25 AM,12.2,8.6,85,29.46,1.5,ESE,3.5,-,N/A,Snow,Light Snow,110,2012-12-02 18:25:00
11:34 AM,12.2,8.6,85,29.46,1.0,East,2.3,-,N/A,Snow,Light Snow,90,2012-12-02 18:34:00
12:00 PM,12.2,8.6,85,29.43,0.8,ENE,4.6,-,N/A,Snow,Light Snow,60,2012-12-02 19:00:00
1:00 PM,12.2,10.4,92,29.42,1.2,East,4.6,-,N/A,Snow,Light Snow,80,2012-12-02 20:00:00
2:00 PM,12.2,10.4,92,29.43,1.0,East,5.8,-,N/A,Snow,Light Snow,80,2012-12-02 21:00:00
2:55 PM,10.4,8.6,92,29.44,2.0,ENE,8.1,-,N/A,Snow,Light Snow,70,2012-12-02 21:55:00
3:00 PM,10.4,8.6,92,29.45,2.5,East,6.9,-,N/A,Snow,Light Snow,80,2012-12-02 22:00:00
3:20 PM,10.4,6.8,85,29.46,4.0,ENE,8.1,-,N/A,Snow,Light Snow,60,2012-12-02 22:20:00
3:30 PM,10.4,6.8,85,29.47,5.0,ENE,4.6,-,N/A,,Overcast,70,2012-12-02 22:30:00
4:00 PM,10.4,6.8,85,29.48,5.0,NNE,5.8,-,N/A,,Overcast,20,2012-12-02 23:00:00
5:00 PM,10,7,82,29.50,5,North,3.5,,,,Mist,10,2012-12-03 00:00:00
5:00 PM,10.4,6.8,85,29.50,5.0,North,3.5,-,N/A,,Overcast,360,2012-12-03 00:00:00
6:00 PM,10.4,6.8,85,29.51,10.0,NW,2.3,-,N/A,,Overcast,310,2012-12-03 01:00:00
6:39 PM,10.4,6.8,85,29.52,8.0,NNW,6.9,-,N/A,,Overcast,330,2012-12-03 01:39:00
7:00 PM,10.4,6.8,85,29.53,8.0,WNW,4.6,-,N/A,,Overcast,300,2012-12-03 02:00:00
7:37 PM,10.4,6.8,85,29.54,3.0,NW,3.5,-,N/A,,Overcast,310,2012-12-03 02:37:00
8:00 PM,10.4,6.8,85,29.55,3.0,NW,3.5,-,N/A,,Overcast,310,2012-12-03 03:00:00
9:00 PM,10.4,6.8,85,29.59,4.0,North,3.5,-,N/A,,Overcast,350,2012-12-03 04:00:00
10:00 PM,10.4,6.8,85,29.40,4.0,Calm,Calm,-,N/A,,Overcast,0,2012-12-03 05:00:00